EW3803 Weather Reports


time (UTC)temp
C
wind
direction
speed
KPH
gust
KPH
rain 1hr
cm
rain 24hr
cm
rain mn
cm
humidity
%
barometer
mb
20260509043026 12 57 4.8 20.9 0.25 0.36 0.28 90 1003.2
20260509041527 12 57 14.5 25.7 0.18 0.28 0.20 89 1003.2
20260509040018 13 60 17.7 30.6 0.18 0.25 0.18 88 1003.4
20260509034520 13 46 9.7 19.3 0.08 0.18 0.10 88 1003.4
20260509033027 13 57 12.9 22.5 0.00 0.08 0.03 87 1003.4
20260509031532 13 34 16.1 29.0 0.00 0.08 0.00 87 1003.5
20260509030031 13 56 14.5 24.1 0.00 0.08 0.00 87 1003.5
20260509024520 13 52 12.9 24.1 0.00 0.08 0.00 87 1003.5
20260509023027 13 53 16.1 24.1 0.00 0.08 0.00 87 1003.7
20260509021528 13 50 16.1 32.2 0.00 0.08 0.00 87 1003.8
20260509020011 13 36 16.1 29.0 0.00 0.08 0.00 87 1004.2
20260509014515 13 53 14.5 24.1 0.00 0.08 0.00 87 1004.4
20260509013035 13 44 9.7 20.9 0.00 0.08 0.00 86 1004.8
20260509011508 13 67 12.9 24.1 0.00 0.08 0.00 85 1005.0
20260509010010 13 61 11.3 20.9 0.00 0.05 0.00 83 1005.2
20260509004514 13 47 14.5 20.9 0.00 0.05 0.00 83 1005.4
20260509003022 13 46 14.5 22.5 0.00 0.05 0.00 83 1005.4
20260509001504 13 55 12.9 19.3 0.00 0.05 0.00 81 1005.6
20260509000008 14 52 11.3 24.1 0.00 0.05 0.00 80 1005.9
20260508234511 14 90 8.0 30.6 0.00 0.05 0.00 80 1005.8
20260508233016 13 69 11.3 19.3 0.00 0.05 0.00 81 1006.1
20260508231522 13 84 14.5 20.9 0.00 0.05 0.00 80 1006.2
20260508230008 13 50 9.7 20.9 0.00 0.05 0.00 79 1006.4
20260508224525 14 54 14.5 27.4 0.00 0.05 0.05 78 1006.4
20260508223024 14 52 6.4 22.5 0.00 0.05 0.05 78 1006.4
20260508221518 13 122 11.3 24.1 0.00 0.05 0.05 79 1006.5
20260508220026 13 69 11.3 27.4 0.00 0.05 0.05 80 1006.3
20260508214507 13 50 16.1 27.4 0.00 0.05 0.05 80 1006.4
20260508213013 13 58 16.1 30.6 0.00 0.05 0.05 83 1006.2
20260508211517 14 51 19.3 32.2 0.00 0.05 0.05 84 1006.4
20260508210025 14 57 16.1 32.2 0.00 0.05 0.05 83 1006.0
20260508204527 14 71 16.1 29.0 0.05 0.05 0.05 83 1005.9
20260508203012 14 61 16.1 35.4 0.05 0.05 0.05 84 1005.8
20260508201517 15 40 24.1 38.6 0.05 0.05 0.05 84 1005.1
20260508200022 15 32 19.3 27.4 0.03 0.03 0.03 84 1005.6
20260508194526 15 44 17.7 24.1 0.00 0.00 0.00 80 1006.3
20260508193010 16 51 16.1 29.0 0.00 0.00 0.00 79 1006.3
20260508191512 16 65 11.3 25.7 0.00 0.00 0.00 78 1006.2
20260508190031 16 64 16.1 30.6 0.00 0.00 0.00 76 1006.1
20260508184522 16 33 12.9 27.4 0.00 0.00 0.00 76 1006.2
20260508183027 16 46 12.9 24.1 0.00 0.00 0.00 74 1006.2
20260508181521 16 61 16.1 25.7 0.00 0.00 0.00 71 1006.3
20260508180016 16 59 14.5 32.2 0.00 0.00 0.00 72 1006.4
20260508174533 16 53 14.5 24.1 0.00 0.00 0.00 73 1006.6
20260508173026 16 55 12.9 24.1 0.00 0.00 0.00 74 1006.5
20260508171529 16 69 9.7 20.9 0.00 0.00 0.00 75 1006.6
20260508170015 17 109 12.9 30.6 0.00 0.00 0.00 74 1006.6
20260508164524 17 100 19.3 27.4 0.00 0.00 0.00 68 1006.6
20260508163028 16 74 11.3 29.0 0.00 0.00 0.00 72 1006.7
20260508161506 16 124 22.5 41.8 0.00 0.00 0.00 73 1007.0
20260508160010 16 106 24.1 46.7 0.00 0.00 0.00 77 1007.0
20260508154517 17 117 25.7 43.5 0.00 0.00 0.00 74 1007.2
20260508153032 18 99 19.3 29.0 0.00 0.00 0.00 70 1007.0
20260508151536 19 98 19.3 29.0 0.00 0.00 0.00 65 1007.2
20260508150012 19 98 14.5 25.7 0.00 0.00 0.00 65 1007.4
20260508144514 19 103 20.9 33.8 0.00 0.00 0.00 67 1007.5
20260508143018 19 95 17.7 33.8 0.00 0.00 0.00 67 1007.8
20260508141526 18 132 17.7 30.6 0.00 0.00 0.00 67 1008.1
20260508140007 19 121 22.5 29.0 0.00 0.00 0.00 66 1008.4
20260508134517 19 122 19.3 30.6 0.00 0.00 0.00 67 1008.6
20260508133018 18 125 17.7 30.6 0.00 0.00 0.00 67 1008.8
20260508131525 19 115 16.1 29.0 0.00 0.00 0.00 65 1008.7
20260508130023 19 102 17.7 33.8 0.00 0.00 0.00 65 1008.7
20260508124521 18 102 19.3 32.2 0.00 0.00 0.00 65 1008.9
20260508123016 18 107 14.5 27.4 0.00 0.00 0.00 66 1009.0
20260508121525 18 117 16.1 29.0 0.00 0.00 0.00 66 1009.2
20260508120027 18 98 22.5 32.2 0.00 0.00 0.00 65 1009.6
20260508114527 18 125 17.7 24.1 0.00 0.00 0.00 65 1009.7
20260508113016 18 113 12.9 24.1 0.00 0.00 0.00 66 1009.9
20260508111521 17 121 9.7 20.9 0.00 0.00 0.00 67 1010.0
20260508110025 17 122 12.9 22.5 0.00 0.00 0.00 65 1010.1
20260508104523 17 117 16.1 27.4 0.00 0.00 0.00 63 1010.3
20260508103014 17 181 11.3 25.7 0.00 0.00 0.00 66 1010.3
20260508101522 17 101 16.1 29.0 0.00 0.00 0.00 65 1010.3
20260508100023 17 73 14.5 27.4 0.00 0.00 0.00 65 1010.3
20260508094526 17 96 17.7 27.4 0.00 0.00 0.00 64 1010.2
20260508093029 17 103 9.7 24.1 0.00 0.00 0.00 65 1010.3
20260508091528 17 59 8.0 24.1 0.00 0.00 0.00 66 1010.3
20260508090021 16 70 9.7 24.1 0.00 0.00 0.00 70 1010.3
20260508084525 16 126 16.1 22.5 0.00 0.00 0.00 69 1010.4
20260508083034 16 80 14.5 22.5 0.00 0.00 0.00 71 1010.4
20260508081529 16 84 8.0 19.3 0.00 0.00 0.00 72 1010.5
20260508080020 16 37 6.4 17.7 0.00 0.00 0.00 73 1010.6
20260508074504 15 67 4.8 16.1 0.00 0.00 0.00 74 1010.6
20260508073009 15 71 8.0 19.3 0.00 0.00 0.00 74 1010.5
20260508071512 15 77 6.4 14.5 0.00 0.00 0.00 75 1010.3
20260508070018 14 49 8.0 17.7 0.00 0.00 0.00 76 1010.2
20260508064529 13 67 4.8 12.9 0.00 0.00 0.00 77 1010.2
20260508063003 13 44 1.6 12.9 0.00 0.00 0.00 78 1010.0
20260508061510 13 61 4.8 12.9 0.00 0.00 0.00 78 1009.9
20260508060014 13 63 3.2 8.0 0.00 0.00 0.00 78 1009.9
20260508054521 13 80 4.8 11.3 0.00 0.00 0.00 78 1009.7
20260508053005 13 46 4.8 11.3 0.00 0.00 0.00 77 1009.6
20260508051508 13 46 3.2 8.0 0.00 0.00 0.00 77 1009.6
20260508050014 13 55 4.8 12.9 0.00 0.00 0.00 77 1009.6
20260508044518 13 51 6.4 11.3 0.00 0.00 0.00 76 1009.6